Flag for U.S.A. Weather past 2 weeks in Terre Haute, Indiana, U.S.A.

Now
72 °F

Sunny.


Feels Like: 77 °F
Forecast: 47 / 71 °F
Wind: 7 mph from Southeast

Location: Terre Haute International Airport - Hulman Field

Current Time: Sep 18, 2014 at 4:04:47 PM

Latest Report: Sep 18, 2014 at 2:53 PM


Visibility: 10 mi

Pressure: 30.07 "Hg

Humidity: 43%

Dew point: 48 °F

Location of Terre HauteLocation

Historic Weather in Terre Haute — Graph

°F

Terre Haute temperature yesterday

Maximum temperature yesterday: 68 °F (at 5:53 PM)
Minimum temperature yesterday: 43 °F (at 5:53 AM)
Average temperature yesterday: 54 °F

Past Weeks' High & Low Weather Summary

 TemperatureHumidityPressure
High91 °F (Sep 5, 3:53 PM)97% (Sep 14, 1:53 AM)30.36 "Hg (Sep 14, 1:53 AM)
Low40 °F (Sep 14, 8:00 AM)39% (Sep 8, 3:53 PM)29.68 "Hg (Sep 10, 6:53 PM)
Average63 °F79%30.09 "Hg
* Reported Sep 3 2:53 PM — Sep 18 2:53 PM, Terre Haute, Weather by CustomWeather, © 2014

Note: Actual official high and low records may vary slightly from our data, if they occured in-between our weather recording intervals... More about our weather records

Advertising

Terre Haute weather history for previous 24 hours

 ConditionsComfort  
Time TempWeatherWind HumidityBarometerVisibility
2:53 PM
Sep 18
72 °FSunny.7 mph43%30.07 "Hg10 mi
1:53 PM72 °FSunny.5 mph43%30.09 "Hg10 mi
12:53 PM70 °FSunny.3 mph46%30.09 "Hg10 mi
11:53 AM69 °FSunny.8 mph49%30.10 "Hg10 mi
10:53 AM66 °FSunny.9 mph59%30.09 "Hg10 mi
9:53 AM61 °FSunny.8 mph72%30.08 "Hg10 mi
8:53 AM55 °FFog.No wind90%30.09 "Hg5 mi
7:53 AM47 °FFog.No wind97%30.07 "Hg5 mi
6:53 AM49 °FFog.No wind93%30.05 "Hg6 mi
5:53 AM49 °FClear.No wind97%30.02 "Hg7 mi
4:53 AM49 °FClear.No wind93%30.03 "Hg9 mi
4:03 AM50 °FFog.No wind93%30.03 "Hg3 mi
3:53 AM50 °FFog.No wind96%30.03 "Hg1 mi
2:53 AM53 °FFog.No wind93%30.03 "Hg6 mi
1:53 AM53 °FOvercast.No wind93%30.03 "Hg8 mi
12:53 AM51 °FPassing clouds.No wind96%30.03 "Hg9 mi
11:53 PM
Sep 17
52 °FFog.3 mph93%30.03 "Hg4 mi
10:53 PM52 °FFog.No wind93%30.02 "Hg5 mi
9:53 PM54 °FClear.No wind90%30.02 "Hg10 mi
8:53 PM56 °FSunny.No wind87%29.99 "Hg10 mi
7:53 PM61 °FOvercast.No wind75%29.97 "Hg10 mi
6:53 PM65 °FPartly sunny.5 mph63%29.97 "Hg10 mi
5:53 PM68 °FPartly sunny.3 mph53%29.98 "Hg10 mi
4:53 PM66 °FPartly sunny.No wind56%29.98 "Hg10 mi
Weather by CustomWeather, © 2014

See weather overviewHow to use our weather pages